Location: Grandview
(34.8900°N, 117.1058°W)
Time: 06:16:05
(UTC-08:00)

N. Korean satellite - Pass Details

Date: 07 October 2017
Orbit: 461 x 513 km, 97.2° (Epoch: 14 December)

Event Time Altitude Azimuth Distance (km) Brightness Sun altitude
Rises 19:08:22 0° 176° (S) 2,580 10.2 -10.0°
Reaches altitude 10° 19:10:29 10° 180° (S) 1,693 9.3 -10.4°
Maximum altitude 19:14:04 57° 260° (W) 585 7.3 -11.2°
Drops below altitude 10° 19:17:37 10° 340° (NNW) 1,676 9.6 -11.9°
Sets 19:19:42 0° 344° (NNW) 2,551 10.5 -12.3°
